Location: Unspecified
(0.0000°N, 0.0000°E)
Time: 20:54:46
(UTC+00:00)

Tiros 1 - Pass Details

Date: 29 October 2021
Orbit: 630 x 664 km, 48.4° (Epoch: 04 December)

Event Time Altitude Azimuth Distance (km) Brightness Sun altitude
Rises 16:23:09 0° 332° (NNW) 2,915 10.7 19.5°
Reaches altitude 10° 16:25:33 10° 339° (NNW) 2,005 9.8 19.0°
Maximum altitude 16:29:57 44° 51° (NE) 864 7.6 17.9°
Drops below altitude 10° 16:34:21 10° 124° (ESE) 2,001 9.3 16.8°
Sets 16:36:44 0° 130° (SE) 2,909 10.2 16.3°
